Weather History for Hill City, KS

Change the Weather History Date:

Sunday, March 10, 2013

  Actual Average Record
Temperature  
Mean Temperature 28 °F 40 °F  
Max Temperature 36 °F 54 °F 94 °F (1989)
Min Temperature 19 °F 26 °F -5 °F (1998)
Degree Days  
Heating Degree Days 38    
Moisture  
Dew Point 17 °F    
Average Humidity 64    
Maximum Humidity 78    
Minimum Humidity 52    
Precipitation  
Precipitation 0.06 in 0.05 in 0.06 in (2013)
Month to date precipitation 0.08 0.40  
Year to date precipitation 1.27 1.37  
Sea Level Pressure  
Sea Level Pressure 29.98 in    
Wind  
Wind Speed 26 mph (NNW)    
Max Wind Speed 37 mph    
Max Gust Speed 48 mph    
Visibility 5 miles    
Events Snow    
T = Trace of Precipitation, MM = Missing Value Source: NWS Daily Summary

Daily Weather History Graph

Daily Weather History Graph

Search for Another Location

Airport:

Trip Planner

Search our weather history database for the weather conditions in past years. The results will help you decide how hot, cold, wet, or windy it might be!

Date:

Astronomy

Mar. 10, 2013 Rise Set
Actual Time 7:58 AM CDT 7:41 PM CDT
Civil Twilight 7:31 AM CDT 8:08 PM CDT
Nautical Twilight 7:00 AM CDT 8:39 PM CDT
Astronomical Twilight 6:29 AM CDT 9:10 PM CDT
Moon 6:58 AM CDT (3/10) 6:51 PM CDT (3/10)
Length of Visible Light 12h 36m
Length of Day
11h 43m
Waning Crescent, 2% of the Moon is Illuminated
Mar 10
Waning Crescent
Mar 11
New
Mar 19
First Quarter
Mar 27
Full
Apr 2
Last Quarter

Hourly Weather History & Observations

Time (CDT) Temp. Windchill Dew Point Humidity Pressure Visibility Wind Dir Wind Speed Gust Speed Precip Events Conditions
12:53 AM 32.0 °F 17.0 °F - N/A% 29.78 in 7.0 mi North 33.4 mph 44.9 mph 0.00 in   Overcast
1:53 AM 32.0 °F 19.2 °F - N/A% 29.84 in 4.0 mi North 23.0 mph 33.4 mph 0.00 in Snow Light Snow
3:15 AM 32.0 °F 19.2 °F - N/A% 29.85 in 2.0 mi North 23.0 mph 34.5 mph 0.00 in Snow Light Snow
3:24 AM 32.0 °F 18.9 °F - N/A% 29.86 in 1.8 mi North 24.2 mph 29.9 mph 0.00 in Snow Light Snow
3:31 AM 32.0 °F 19.8 °F - N/A% 29.86 in 1.2 mi North 20.7 mph 29.9 mph 0.01 in Snow Light Snow
3:39 AM 32.0 °F 18.4 °F - N/A% 29.86 in 0.8 mi NNW 26.5 mph 32.2 mph 0.01 in Snow Light Snow
3:53 AM 32.0 °F 18.4 °F - N/A% 29.87 in 1.0 mi North 26.5 mph 36.8 mph 0.02 in Snow Light Snow
4:20 AM 32.0 °F 18.6 °F - N/A% 29.86 in 1.5 mi North 25.3 mph 33.4 mph 0.01 in Snow Light Snow
4:30 AM 32.0 °F 17.6 °F - N/A% 29.86 in 1.5 mi NNW 29.9 mph 40.3 mph 0.01 in Snow Light Snow
4:49 AM 30.9 °F 15.9 °F - N/A% 29.88 in 0.8 mi North 31.1 mph 48.3 mph 0.02 in Snow Light Snow
4:57 AM 30.2 °F 15.4 °F - N/A% 29.86 in 1.0 mi NNW 28.8 mph 36.8 mph 0.00 in Snow Light Snow
5:06 AM 30.2 °F 14.9 °F - N/A% 29.87 in 0.8 mi North 31.1 mph 43.7 mph 0.00 in Snow Light Snow
5:19 AM 30.2 °F 15.9 °F - N/A% 29.89 in 1.0 mi NNW 26.5 mph 41.4 mph 0.01 in Snow Light Snow
5:27 AM 30.2 °F 13.9 °F - N/A% 29.90 in 0.8 mi North 36.8 mph 44.9 mph 0.01 in Snow Light Snow
5:53 AM 28.9 °F 13.5 °F - N/A% 29.95 in 0.8 mi North 29.9 mph 43.7 mph 0.01 in Snow Light Snow
6:02 AM 28.4 °F 12.3 °F - N/A% 29.92 in 1.0 mi North 32.2 mph 43.7 mph 0.00 in Snow Light Snow
6:18 AM 28.4 °F 13.0 °F - N/A% 29.94 in 1.0 mi North 28.8 mph 39.1 mph 0.00 in Snow Light Snow
6:33 AM 28.4 °F 12.7 °F - N/A% 29.94 in 2.0 mi NNW 29.9 mph 39.1 mph 0.01 in Snow Light Snow
6:42 AM 28.4 °F 13.3 °F - N/A% 29.94 in 5.0 mi NNW 27.6 mph 38.0 mph 0.01 in Snow Light Snow
7:53 AM 28.0 °F 12.3 °F - N/A% 30.03 in 3.0 mi NNW 29.9 mph 42.6 mph N/A Snow Light Snow
8:53 AM 27.0 °F 11.6 °F - N/A% 30.04 in 5.0 mi NNW 26.5 mph 40.3 mph N/A   Overcast
9:53 AM 26.1 °F 10.1 °F - N/A% 30.04 in 3.0 mi NNW 27.6 mph 42.6 mph N/A   Overcast
10:53 AM 28.0 °F 12.3 °F - N/A% 30.06 in 4.0 mi North 29.9 mph 43.7 mph N/A   Overcast
11:53 AM 28.0 °F 11.3 °F 18.0 °F 66% 30.08 in 10.0 mi North 34.5 mph 43.7 mph N/A   Overcast
12:53 PM 28.0 °F 12.0 °F 18.0 °F 66% 30.09 in 10.0 mi NNW 31.1 mph 42.6 mph N/A   Overcast
1:53 PM 30.0 °F 16.0 °F 19.0 °F 64% 30.10 in 10.0 mi North 25.3 mph 35.7 mph N/A   Overcast
2:53 PM 30.9 °F 16.9 °F 19.9 °F 64% 30.09 in 10.0 mi NNW 26.5 mph 36.8 mph N/A   Overcast
3:53 PM 34.0 °F 21.5 °F 21.9 °F 61% 30.07 in 10.0 mi NNW 24.2 mph 31.1 mph N/A   Overcast
4:53 PM 35.1 °F 22.0 °F 19.9 °F 54% 30.07 in 10.0 mi North 28.8 mph 38.0 mph N/A   Scattered Clouds
5:53 PM 35.1 °F 23.3 °F 19.0 °F 52% 30.07 in 10.0 mi NNW 23.0 mph 33.4 mph N/A   Clear
6:53 PM 33.1 °F 20.9 °F 17.1 °F 52% 30.08 in 10.0 mi NNW 21.9 mph 29.9 mph N/A   Clear
7:53 PM 28.9 °F 18.2 °F 16.0 °F 58% 30.10 in 10.0 mi NNW 13.8 mph - N/A   Clear
8:53 PM 27.0 °F 17.3 °F 16.0 °F 63% 30.12 in 10.0 mi NNW 10.4 mph - N/A   Clear
9:53 PM 24.1 °F 14.4 °F 16.0 °F 71% 30.13 in 10.0 mi NNW 9.2 mph - N/A   Clear
10:53 PM 21.9 °F 11.0 °F 15.1 °F 75% 30.15 in 10.0 mi NNW 10.4 mph - N/A   Clear
11:53 PM 19.9 °F 14.9 °F 14.0 °F 78% 30.14 in 10.0 mi West 3.5 mph - N/A   Clear
12:53 AM 19.9 °F 10.1 °F 14.0 °F 78% 30.11 in 10.0 mi WNW 8.1 mph - N/A   Clear